Total_Precipitation_Accumulation
0.07 0.12 0.14 0.16 0.18 0.22 0.27 0.35 0.46 0.53 0.51 0.59 0.69 0.90 1.02 1.23 1.41 1.63 1.76 1.86 1.82 1.90 2.12 2.44 2.94 3.66 4.13 4.27 4.34 4.56 4.60 4.70 4.74 4.77 4.76 4.92 5.10 5.15 5.17 5.31 5.34 5.20 5.11 5.28
0.12 0.13 0.10 0.12 0.16 0.20 0.28 0.35 0.46 0.56 0.48 0.55 0.75 0.96 1.13 1.28 1.43 1.54 1.64 1.70 1.67 1.70 1.98 2.42 2.91 3.43 3.72 4.08 4.27 4.51 4.55 4.74 5.04 5.49 6.03 6.33 6.43 6.27 6.11 6.02 5.95 5.78 5.66 5.81
0.13 0.10 0.07 0.09 0.15 0.21 0.29 0.33 0.44 0.58 0.60 0.63 0.86 1.30 1.37 1.44 1.66 1.79 1.77 1.83 1.89 1.79 1.99 2.34 2.57 2.98 3.30 3.70 4.06 4.29 4.63 5.04 5.59 6.31 7.17 7.56 7.34 6.88 6.63 6.32 6.23 5.96 5.74 5.76
0.09 0.07 0.08 0.10 0.12 0.18 0.26 0.22 0.32 0.43 0.61 0.75 0.75 1.40 1.73 1.85 2.03 2.15 1.93 1.85 1.90 1.93 1.99 2.16 2.41 2.73 2.95 3.29 3.76 4.25 4.82 5.43 6.14 6.82 7.34 7.56 7.44 7.18 6.87 6.40 5.98 5.59 5.25 5.10
0.12 0.10 0.14 0.17 0.12 0.16 0.17 0.18 0.24 0.33 0.47 0.69 0.69 1.08 1.77 2.02 2.14 2.22 2.04 1.97 1.93 1.93 1.86 1.98 2.17 2.42 2.76 3.21 3.69 4.24 4.79 5.51 6.05 6.63 7.05 7.30 7.28 7.19 6.82 6.09 5.45 5.02 4.63 4.37
0.10 0.10 0.15 0.14 0.11 0.14 0.17 0.21 0.30 0.38 0.51 0.82 0.68 0.99 1.82 2.27 2.34 2.20 2.11 2.11 1.93 1.84 1.92 2.01 2.06 2.21 2.74 3.21 3.73 4.13 4.54 5.26 5.90 6.40 6.77 7.07 7.06 6.90 6.29 5.56 4.97 4.55 4.22 3.96
0.23 0.19 0.16 0.14 0.15 0.17 0.22 0.41 0.78 0.96 1.02 0.91 0.65 1.06 1.87 2.03 2.05 2.03 1.87 1.80 1.82 1.81 1.82 1.86 2.10 2.28 2.91 3.37 3.64 3.91 4.25 4.69 5.17 5.60 5.92 6.12 6.17 5.94 5.48 5.05 4.60 4.21 3.96 3.67
0.39 0.32 0.19 0.14 0.14 0.18 0.25 0.40 0.85 1.15 1.18 1.05 1.00 1.72 2.29 1.97 1.90 1.93 1.88 1.70 1.69 1.82 1.77 1.75 1.99 2.29 2.52 2.82 3.14 3.47 3.74 4.08 4.37 4.55 4.80 4.78 4.76 4.71 4.47 4.13 3.74 3.46 3.16 2.95
0.44 0.36 0.19 0.14 0.11 0.15 0.25 0.34 0.41 0.65 0.74 1.06 1.49 2.00 2.46 2.29 2.18 1.93 1.82 1.76 1.75 1.74 1.71 1.83 2.04 2.21 2.28 2.47 2.73 2.93 3.09 3.39 3.57 3.59 3.62 3.57 3.47 3.48 3.45 3.33 3.02 2.71 2.48 2.31
0.37 0.39 0.26 0.18 0.16 0.17 0.23 0.30 0.45 0.78 1.09 1.38 1.69 2.43 3.00 2.97 2.66 2.32 2.00 1.79 1.64 1.69 1.79 1.89 2.00 2.28 2.32 2.28 2.47 2.62 2.64 2.73 2.89 2.98 2.86 2.69 2.77 2.84 2.82 2.77 2.51 2.28 2.10 1.93
0.39 0.50 0.38 0.25 0.27 0.27 0.29 0.36 0.50 0.76 0.90 1.46 2.03 2.81 2.76 2.84 2.65 2.51 2.38 1.98 1.78 1.83 1.92 2.02 2.01 2.13 2.18 2.11 2.17 2.32 2.39 2.42 2.43 2.50 2.50 2.40 2.33 2.28 2.28 2.32 2.21 2.06 1.92 1.79
0.39 0.49 0.53 0.36 0.31 0.29 0.32 0.37 0.53 0.93 1.06 1.21 1.80 2.76 2.32 2.68 2.78 2.63 2.41 2.07 1.98 2.08 2.07 2.11 2.12 2.03 2.04 2.17 2.30 2.25 2.26 2.24 2.25 2.22 2.25 2.30 2.13 2.04 2.00 1.97 1.92 1.80 1.75 1.70
0.37 0.55 0.83 0.86 0.75 0.50 0.43 0.39 0.47 0.63 0.95 1.22 1.73 2.65 2.39 2.53 2.75 2.57 2.32 2.19 2.22 2.26 2.23 2.32 2.20 2.00 1.95 2.02 2.09 1.99 1.92 1.91 1.79 1.77 1.90 2.00 1.84 1.70 1.71 1.69 1.65 1.66 1.59 1.55
0.32 0.61 1.09 1.53 1.29 0.76 0.58 0.44 0.44 0.62 1.03 1.21 1.48 2.03 2.18 2.29 2.37 2.39 2.30 2.27 2.24 2.22 2.21 2.30 2.29 2.10 2.04 1.93 1.89 1.81 1.71 1.68 1.68 1.66 1.67 1.67 1.65 1.59 1.57 1.55 1.53 1.50 1.44 1.39
0.35 0.61 0.73 0.70 0.54 0.54 0.56 0.51 0.52 0.62 0.77 1.15 1.43 1.73 1.97 2.25 2.42 2.49 2.37 2.26 2.19 2.18 2.23 2.35 2.27 2.13 2.10 2.05 2.01 1.80 1.66 1.62 1.62 1.65 1.67 1.61 1.54 1.47 1.49 1.51 1.47 1.40 1.38 1.28
0.39 0.54 0.62 0.67 0.56 0.56 0.65 0.63 0.64 0.73 0.84 1.08 1.38 1.84 2.11 2.42 2.51 2.47 2.32 2.25 2.31 2.30 2.25 2.22 2.16 2.13 2.10 2.08 2.04 1.82 1.63 1.54 1.61 1.69 1.68 1.63 1.55 1.46 1.46 1.51 1.50 1.47 1.48 1.46
0.48 0.65 0.94 0.94 0.70 0.84 1.23 1.05 1.00 1.06 1.06 1.28 1.60 1.86 2.03 2.32 2.44 2.45 2.37 2.36 2.48 2.43 2.49 2.41 2.33 2.34 2.35 2.23 2.05 1.94 1.73 1.58 1.57 1.59 1.59 1.64 1.60 1.48 1.40 1.39 1.52 1.52 1.56 1.50
0.55 0.81 1.13 1.15 1.29 1.88 1.69 1.08 1.08 1.22 1.19 1.23 1.35 1.47 1.69 1.95 2.06 2.12 2.23 2.40 2.51 2.48 2.45 2.39 2.35 2.39 2.38 2.24 2.13 2.01 1.76 1.60 1.54 1.50 1.44 1.51 1.51 1.49 1.42 1.44 1.51 1.54 1.59 1.58
0.47 0.86 1.34 1.53 1.78 1.98 1.73 1.25 1.16 1.49 1.78 1.38 1.34 1.40 1.50 1.51 1.82 2.17 2.14 2.14 2.29 2.32 2.29 2.30 2.33 2.36 2.32 2.22 2.12 1.99 1.79 1.61 1.50 1.43 1.39 1.35 1.31 1.32 1.34 1.35 1.45 1.60 1.64 1.57
0.51 0.84 1.43 1.71 2.17 2.42 1.96 1.10 0.95 1.50 2.41 1.64 1.50 1.51 1.62 1.77 2.21 2.24 1.91 1.83 1.99 2.11 2.09 2.10 2.14 2.20 2.22 2.18 2.12 2.07 1.94 1.71 1.51 1.36 1.24 1.26 1.30 1.29 1.27 1.34 1.45 1.47 1.52 1.49
1.04 1.22 1.48 1.79 2.35 2.35 1.42 0.93 1.10 2.25 2.57 1.71 1.60 1.60 1.66 1.84 1.96 1.84 1.65 1.72 1.87 1.98 2.00 1.87 1.79 1.82 1.90 1.90 1.92 1.93 1.85 1.62 1.37 1.24 1.18 1.23 1.23 1.24 1.23 1.35 1.39 1.41 1.38 1.42
1.54 1.81 1.94 2.11 2.58 2.63 1.39 1.19 1.82 2.16 1.60 1.53 1.62 1.58 1.57 1.47 1.36 1.46 1.59 1.75 1.83 1.90 1.87 1.77 1.68 1.55 1.51 1.55 1.67 1.75 1.64 1.40 1.21 1.17 1.15 1.15 1.13 1.05 1.04 1.29 1.41 1.41 1.47 1.39
1.63 2.00 2.25 2.45 2.62 2.12 1.53 1.60 1.64 1.53 1.49 1.47 1.50 1.42 1.37 1.34 1.31 1.40 1.55 1.64 1.78 1.77 1.69 1.68 1.58 1.43 1.30 1.37 1.44 1.42 1.37 1.30 1.14 1.13 1.21 1.14 1.06 1.14 1.10 1.13 1.19 1.24 1.34 1.27
1.70 1.63 1.87 2.13 2.15 1.89 1.71 1.64 1.49 1.36 1.39 1.32 1.32 1.33 1.35 1.38 1.35 1.37 1.48 1.49 1.61 1.64 1.59 1.52 1.50 1.42 1.29 1.25 1.22 1.16 1.03 1.07 1.16 1.16 1.23 1.21 1.13 1.17 1.15 1.11 1.05 0.97 0.99 1.03
1.68 1.83 2.09 2.28 2.24 2.11 1.86 1.55 1.42 1.39 1.48 1.45 1.38 1.37 1.33 1.38 1.42 1.41 1.44 1.42 1.43 1.47 1.41 1.36 1.47 1.42 1.30 1.17 1.13 1.03 0.93 0.96 1.19 1.24 1.20 1.17 1.08 1.03 1.05 0.99 0.94 0.86 0.83 0.88
1.34 1.77 2.26 2.41 2.05 2.03 1.90 1.65 1.45 1.46 1.55 1.53 1.42 1.36 1.27 1.28 1.30 1.27 1.27 1.22 1.23 1.29 1.24 1.23 1.33 1.31 1.23 1.15 1.12 1.04 0.93 0.90 1.02 1.11 1.09 1.03 1.00 0.91 0.84 0.83 0.78 0.73 0.67 0.68